Flag for U.S.A. Weather past 2 weeks in Santa Barbara, California, U.S.A.

Now
56 °F

Clear.


Feels Like: 56 °F
Forecast: 57 / 71 °F
Wind: No wind

Location: Santa Barbara Municipal Airport

Current Time: Oct 24, 2014 at 2:50:23 AM

Latest Report: Oct 24, 2014 at 1:53 AM


Visibility: 10 mi

Pressure: 29.95 "Hg

Humidity: 77%

Dew point: 49 °F

Location of Santa BarbaraLocation

Historic Weather in Santa Barbara — Graph

°F

Santa Barbara temperature yesterday

Maximum temperature yesterday: 77 °F (at 11:53 AM)
Minimum temperature yesterday: 53 °F (at 6:53 AM)
Average temperature yesterday: 66 °F

Past Weeks' High & Low Weather Summary

 TemperatureHumidityPressure
High78 °F (Oct 22, 3:53 PM)97% (Oct 12, 4:53 AM)30.01 "Hg (Oct 12, 4:53 AM)
Low53 °F (Oct 18, 6:53 AM)35% (Oct 22, 3:53 PM)29.80 "Hg (Oct 21, 4:53 PM)
Average66 °F74%29.92 "Hg
* Reported Oct 9 1:00 AM — Oct 24 1:53 AM, Santa Barbara, Weather by CustomWeather, © 2014

Note: Actual official high and low records may vary slightly from our data, if they occured in-between our weather recording intervals... More about our weather records

Advertising

Santa Barbara weather history for previous 24 hours

 ConditionsComfort  
Time TempWeatherWind HumidityBarometerVisibility
1:53 AM
Oct 24
56 °FClear.No wind77%29.95 "Hg10 mi
12:53 AM56 °FClear.3 mph77%29.96 "Hg10 mi
11:53 PM
Oct 23
57 °FClear.No wind78%29.95 "Hg10 mi
10:53 PM58 °FClear.No wind78%29.95 "Hg10 mi
9:53 PM61 °FClear.No wind78%29.93 "Hg10 mi
8:53 PM64 °FClear.3 mph70%29.91 "Hg10 mi
7:53 PM65 °FClear.3 mph87%29.90 "Hg9 mi
6:53 PM67 °FSunny.5 mph79%29.90 "Hg9 mi
5:53 PM74 °FSunny.No wind43%29.89 "Hg10 mi
4:53 PM76 °FSunny.5 mph42%29.90 "Hg10 mi
3:53 PM76 °FSunny.5 mph50%29.91 "Hg10 mi
2:53 PM76 °FSunny.6 mph52%29.92 "Hg10 mi
1:53 PM77 °FSunny.7 mph54%29.94 "Hg10 mi
12:53 PM77 °FSunny.6 mph52%29.96 "Hg10 mi
11:53 AM77 °FScattered clouds.5 mph50%29.98 "Hg10 mi
10:53 AM75 °FSunny.3 mph55%30.00 "Hg10 mi
9:53 AM74 °FSunny.No wind50%29.99 "Hg10 mi
8:53 AM66 °FSunny.No wind59%29.99 "Hg10 mi
7:53 AM55 °FClear.No wind80%29.97 "Hg10 mi
6:53 AM53 °FClear.3 mph83%29.95 "Hg10 mi
5:53 AM55 °FClear.No wind83%29.93 "Hg10 mi
4:53 AM55 °FClear.No wind80%29.92 "Hg10 mi
3:53 AM57 °FClear.No wind78%29.92 "Hg10 mi
2:53 AM59 °FClear.No wind75%29.93 "Hg10 mi
Weather by CustomWeather, © 2014

See weather overviewHow to use our weather pages